Miscellaneous Local Product
Issued by NWS Hastings, NE

Home | Current Version | Previous Version | Graphics & Text | Print | Product List | Glossary On
Versions: 1 2 3 4 5 6 7 8 9 10 11 12 13 14 15 16 17 18 19 20 21 22 23 24 25 26 27 28 29 30 31 32 33 34 35 36 37 38 39 40 41 42 43 44 45 46 47 48 49 50
996
AXUS43 KGID 281902
MISGRI

GID CWA HOURLY WEATHER ROUNDUP
NATIONAL WEATHER SERVICE HASTINGS NE
200 PM CDT FRI APR 28 2017

NOTE: "FAIR" INDICATES FEW OR NO CLOUDS BELOW 12,000 FEET WITH NO
SIGNIFICANT WEATHER AND/OR OBSTRUCTIONS TO VISIBILITY.

...SOUTH CENTRAL NEBRASKA...

CITY           SKY/WX    TMP DP  RH WIND       PRES   REMARKS
GRAND ISLAND   LGT RAIN  36  36 100 NE18      29.83R WCI  26
HASTINGS       LGT RAIN  38  36  92 NE21G31   29.80R FOG     WCI  28
KEARNEY        CLOUDY    36  30  80 NE16      29.82S WCI  26
ORD            LGT SNOW  35  32  88 NE13      29.88R FOG     WCI  26
YORK           LGT RAIN  39  39 100 NE16G23   29.81R WCI  30
AURORA         CLOUDY    38  37  97 NE20      29.81R FOG     WCI  27
LEXINGTON      MIX PCPN  36  34  91 NE23      29.82R WCI  25
HOLDREGE       CLOUDY    37  35  92 NE22      29.80R WCI  26
HEBRON         CLOUDY    41  41  98 NE20      29.76R FOG

...NEBRASKA PANHANDLE...

CITY           SKY/WX    TMP DP  RH WIND       PRES   REMARKS
CHADRON        LGT RAIN  37  33  85 E14       29.93R FOG     WCI  28
ALLIANCE       LGT SNOW  33  31  92 E22       29.86R VSB 3/4 WCI  21
SCOTTSBLUFF    SNOW      34  32  92 E17       29.85R VSB 1/2 WCI  23
SIDNEY         LGT SNOW  34  32  92 E21G29    29.81R FOG     WCI  22

...WESTERN AND NORTH CENTRAL NEBRASKA...

CITY           SKY/WX    TMP DP  RH WIND       PRES   REMARKS
VALENTINE      CLOUDY    44  27  51 NE17      29.93R
AINSWORTH      CLOUDY    40  31  70 NE13G23   29.92R WCI  33
ONEILL         CLOUDY    42  29  61 NE14      29.91S
BROKEN BOW     FLURRIES  36  33  89 NE22G28   29.86R WCI  25
IMPERIAL       CLOUDY    38  35  89 NE22      29.79S WCI  27
NORTH PLATTE   LGT SNOW  37  34  89 NE18G31   29.85R FOG     WCI  27
MCCOOK         CLOUDY    39  37  92 NE20G28   29.79R WCI  29

...EASTERN NEBRASKA...

CITY           SKY/WX    TMP DP  RH WIND       PRES   REMARKS
NORFOLK        LGT RAIN  38  34  85 NE16G23   29.87S WCI  29
SO SIOUX CITY  LGT RAIN  43  32  65 E12       29.90R
TEKAMAH        LGT RAIN  40  36  86 NE22      29.85S WCI  30
COLUMBUS       CLOUDY    39  34  81 NE20G30   29.84R WCI  30
ALBION         LGT RAIN  37  34  87 N16G22    29.87R WCI  28
OMAHA EPPLEY   LGT RAIN  41  36  82 NE9       29.82S
OFFUTT AFB     CLOUDY    40  37  89 NE16G23   29.80R WCI  31
MILLARD        DRIZZLE   42  40  91 NE8       29.82R
LINCOLN        LGT RAIN  41  39  93 NE14G24   29.81R FOG
NEBRASKA CITY  CLOUDY    39  39 100 NE23      29.76F WCI  29
BEATRICE       CLOUDY    41  40  95 NE15G23   29.76R FOG
FALLS CITY     CLOUDY    44  43  96 NE13G20   29.73S FOG

...NORTHERN KANSAS...

CITY           SKY/WX    TMP DP  RH WIND       PRES   REMARKS
GOODLAND       PTSUNNY   49  38  65 N18G26    29.72R
HILL CITY      PTSUNNY   55  46  71 N21G29    29.72R
NORTON         CLOUDY    39  36  87 N17G25    29.76R WCI  30
PHILLIPSBURG   CLOUDY    45  43  93 N15G25    29.75R
SMITH CENTER   CLOUDY    45  43  93 N17G25    29.73R
HAYS           SUNNY     62  46  55 N14       29.67S
RUSSELL        MOSUNNY   64  46  52 N12G18    29.65R
CONCORDIA        N/A     49  48  97 MISG      29.70R
SALINA         MOSUNNY   70  50  49 NW15      29.65F
TOPEKA         CLOUDY    63  58  83 S7        29.67S



USA.gov is the U.S. government's official web portal to all federal, state and local government web resources and services.